Wengen, Switzerland 16 day weather forecast

Slopes altitude range 945 m - 2970m

Number of lifts: 44 Pistes: 213km

In some cases the lift and piste totals shown are for the ski domain (e.g. Three Valleys) rather than individual resort (e.g. Courchevel)

Overview

The 16 day weather forecast is fully updated 4 times every day.

    • Sat 20 JAN 2018
    • Sat 20
    • -10C -7C
    • Sun 21 JAN 2018
    • Sun 21
    • -9C -7C
    • Mon 22 JAN 2018
    • Mon 22
    • -4C -2C
    • Tue 23 JAN 2018
    • Tue 23
    • -6C -3C
    • Wed 24 JAN 2018
    • Wed 24
    • -10C -2C
    • Thu 25 JAN 2018
    • Thu 25
    • -9C -3C
    • Fri 26 JAN 2018
    • Fri 26
    • -9C -6C
    • Sat 27 JAN 2018
    • Sat 27
    • -9C -5C
    • Sun 28 JAN 2018
    • Sun 28
    • -3C 2C
    • Mon 29 JAN 2018
    • Mon 29
    • -2C 6C
    • Tue 30 JAN 2018
    • Tue 30
    • 0C 8C
    • Wed 31 JAN 2018
    • Wed 31
    • 1C 10C
    • Thu 01 FEB 2018
    • Thu 01
    • 3C 8C
    • Fri 02 FEB 2018
    • Fri 02
    • 0C 2C
    • Sat 03 FEB 2018
    • Sat 03
    • -5C 4C
    • Sun 04 FEB 2018
    • Sun 04
    • -1C 9C

Date:

Time Type 0°C level Temp Chill Snow Cloud Speed Gust Dir Press
18:00 1418m -7°C -7_7 6cm 100% 7mph 13mph 1006mB
21:00 1876m -8°C -8_13 10cm 100% 13mph 31mph 1004mB
0:00 1913m -8°C -8_18 11cm 100% 18mph 38mph 1005mB
3:00 1658m -7°C -7_19 10cm 100% 19mph 33mph 1007mB
6:00 1421m -9°C -9_17 9cm 100% 17mph 27mph 1010mB
9:00 1341m -9°C -9_14 7cm 100% 14mph 20mph 1013mB
12:00 1324m -7°C -7_13 7cm 100% 13mph 17mph 1016mB
15:00 1291m -8°C -8_10 9cm 100% 10mph 13mph 1017mB
18:00 1393m -7°C -7_8 9cm 100% 8mph 12mph 1018mB
21:00 1777m -8°C -8_8 10cm 100% 8mph 12mph 1017mB
0:00 2048m -8°C -8_9 11cm 100% 9mph 13mph 1016mB
3:00 2137m -4°C -4_10 12cm 100% 10mph 14mph 1015mB
6:00 2162m -4°C -4_11 15cm 100% 11mph 15mph 1015mB
9:00 2160m -4°C -4_11 18cm 100% 11mph 15mph 1016mB
12:00 2142m -2°C -2_9 16cm 100% 9mph 13mph 1016mB
15:00 2125m -3°C -3_7 10cm 100% 7mph 10mph 1017mB
18:00 2030m -3°C -3_5 10cm 100% 5mph 7mph 1017mB
21:00 2082m -4°C -4_7 14cm 100% 7mph 11mph 1018mB
0:00 2124m -4°C -4_8 13cm 100% 8mph 11mph 1019mB
3:00 2060m -4°C -4_8 9cm 100% 8mph 10mph 1022mB
6:00 1909m -5°C -5_6 5cm 99% 6mph 7mph 1024mB
9:00 1835m -6°C -6_5 0cm 98% 5mph 5mph 1025mB
12:00 2038m -3°C -3_5 0cm 96% 5mph 6mph 1025mB
15:00 1788m -3°C -3_3 0cm 98% 3mph 4mph 1025mB
18:00 859m -3°C -3_0 0cm 98% 0mph 3mph 1028mB
21:00 897m -11°C -11_1 0cm 76% 1mph 2mph 1030mB
0:00 1038m -11°C -11_2 0cm 64% 2mph 2mph 1030mB
3:00 1083m -10°C -10_3 0cm 87% 3mph 3mph 1029mB
6:00 1061m -10°C -10_3 0cm 93% 3mph 3mph 1029mB
9:00 1858m -10°C -10_5 0cm 98% 5mph 6mph 1029mB
12:00 2287m -2°C -2_6 0cm 85% 6mph 6mph 1027mB
15:00 2068m -2°C -2_6 0cm 63% 6mph 7mph 1025mB
18:00 1315m -2°C -2_7 0cm 72% 7mph 7mph 1027mB
21:00 1289m -8°C -8_8 0cm 95% 8mph 9mph 1028mB
0:00 1298m -8°C -8_9 0cm 97% 9mph 9mph 1027mB
3:00 1209m -9°C -9_9 0cm 97% 9mph 10mph 1025mB
6:00 1162m -9°C -9_9 0cm 98% 9mph 9mph 1025mB
9:00 1612m -9°C -9_9 0cm 100% 9mph 9mph 1024mB
12:00 2002m -3°C -3_8 0cm 100% 8mph 8mph 1021mB
15:00 1891m -3°C -3_6 0cm 100% 6mph 7mph 1020mB
18:00 1242m -3°C -3_6 0cm 100% 6mph 7mph 1021mB
21:00 1101m -9°C -9_7 0cm 100% 7mph 7mph 1022mB
0:00 1147m -9°C -9_7 0cm 100% 7mph 8mph 1022mB
3:00 991m -10°C -10_6 0cm 100% 6mph 6mph 1022mB
6:00 1029m -10°C -10_4 0cm 100% 4mph 5mph 1023mB
9:00 1432m -9°C -9_4 1cm 100% 4mph 4mph 1024mB
12:00 1632m -6°C -6_3 1cm 100% 3mph 3mph 1024mB
15:00 1658m -5°C -5_3 3cm 100% 3mph 3mph 1024mB
18:00 1478m -5°C -5_3 3cm 100% 3mph 3mph 1026mB
21:00 1407m -8°C -8_3 3cm 100% 3mph 3mph 1029mB
0:00 1363m -8°C -8_3 3cm 100% 3mph 3mph 1030mB
3:00 1307m -8°C -8_4 2cm 100% 4mph 4mph 1031mB
6:00 1243m -9°C -9_5 2cm 100% 5mph 5mph 1033mB
9:00 1420m -9°C -9_5 1cm 100% 5mph 6mph 1035mB
12:00 1700m -5°C -5_6 1cm 100% 6mph 6mph 1035mB
15:00 1677m -5°C -5_6 1cm 98% 6mph 6mph 1035mB
18:00 1347m -5°C -5_5 1cm 98% 5mph 6mph 1038mB
21:00 1051m -10°C -10_4 0cm 94% 4mph 5mph 1040mB
0:00 590m -13°C -13_4 0cm 62% 4mph 5mph 1041mB
3:00 674m -2°C -2_3 0cm 72% 3mph 4mph 1041mB
6:00 439m -3°C -3_2 0cm 50% 2mph 3mph 1042mB
9:00 906m -3°C -3_2 0cm 16% 2mph 4mph 1042mB
12:00 1107m 2°C 2_3 0cm 11% 3mph 4mph 1040mB
15:00 1475m 3°C 3_3 0cm 1% 3mph 4mph 1040mB
18:00 687m 3°C 3_2 0cm 25% 2mph 2mph 1042mB
21:00 649m -2°C -2_2 0cm 11% 2mph 3mph 1042mB
0:00 641m -2°C -2_2 0cm 6% 2mph 2mph 1042mB
3:00 665m -2°C -2_2 0cm 0% 2mph 3mph 1041mB
6:00 685m -2°C -2_2 0cm 0% 2mph 3mph 1041mB
9:00 2819m -2°C -2_1 0cm 0% 1mph 1mph 1041mB
12:00 2880m 6°C 6_2 0cm 0% 2mph 2mph 1039mB
15:00 2888m 7°C 7_2 0cm 0% 2mph 2mph 1038mB
18:00 2863m 7°C 7_4 0cm 0% 4mph 4mph 1039mB
21:00 2894m 1°C 1_4 0cm 0% 4mph 5mph 1040mB
0:00 2927m 1°C 1_4 0cm 0% 4mph 5mph 1039mB
3:00 2862m 1°C 1_4 0cm 0% 4mph 5mph 1038mB
6:00 2678m 0°C 0_4 0cm 0% 4mph 5mph 1038mB
9:00 2767m 0°C 0_3 0cm 0% 3mph 3mph 1036mB
12:00 2856m 8°C 8_1 0cm 1% 1mph 1mph 1033mB
Morning 0mm 0 2580m 1°C 1_6 0cm 8% 6mph 6mph 1031mB
Afternoon 0mm 0 2549m 10°C 10_3 0cm 50% 3mph 6mph 1023mB
Morning 0mm 0 2184m 4°C 4_7 0cm 81% 7mph 13mph 1020mB
Afternoon 0.00520833mm 0 2126m 8°C 8_8 0cm 55% 8mph 17mph 1012mB
Morning 0.833333mm 0 1084m 2°C 2_4 7cm 99% 4mph 10mph 1012mB
Afternoon 0.432292mm 0.375 924m 2°C 2_8 3cm 86% 8mph 13mph 1020mB
Morning 0.015625mm 0.1875 45m -5°C -5_5 0cm 22% 5mph 6mph 1028mB
Afternoon 0mm 0 1256m 4°C 4_3 0cm 0% 3mph 5mph 1024mB
Morning 0mm 0 766m -1°C -1_6 0cm 0% 6mph 6mph 1024mB
Afternoon 0mm 0 2077m 9°C 9_4 0cm 3% 4mph 9mph 1016mB
Morning 0.510417mm 0 1044m 1°C 1_5 4cm 53% 5mph 13mph 1020mB
Afternoon 0.427083mm 0.0625 906m 1°C 1_2 3cm 67% 2mph 2mph 1023mB

16 day outlook at a glance

Forecast issued: 20/01/2018 18:25:28

Chat

Your comments and questions. In a resort? Let us know what it's like!


Characters left 250

For terms and conditions see Readers Comments on the Cookie and privacy policy page.